Regional Weather Roundup
Issued by NWS

Home | Current Version | Previous Version | Graphics & Text | Print | Product List | Glossary Off
Versions: 1 2 3 4 5 6 7 8 9 10 11 12 13 14 15 16 17 18 19 20 21 22 23 24 25 26 27 28 29 30 31 32 33 34 35 36 37 38 39 40 41 42 43 44 45 46 47 48 49 50

000
ASUS43 KLMK 031602
RWRKY
KENTUCKY REGIONAL WEATHER ROUNDUP
NATIONAL WEATHER SERVICE LOUISVILLE KY
1200 PM EDT FRI JUL 03 2015

NOTE "FAIR" INDICATES FEW OR NO CLOUDS BELOW 12,000 FEET
WITH NO SIGNIFICANT WEATHER AND/OR OBSTRUCTIONS TO VISIBILITY.

KYZ001>023-026-027-061>063-070>075-031700-
WESTERN AND SOUTH CENTRAL KENTUCKY

CITY           SKY/WX    TMP DP  RH WIND       PRES   REMARKS
PADUCAH        PTSUNNY   79  68  69 W6        29.91R
HENDERSON      PTSUNNY   77  70  78 NW8       29.87S
OWENSBORO      CLOUDY    77  71  81 VRB3      29.88S
HOPKINSVILLE   CLOUDY    77  71  84 W10       29.91R
BOWLING GREEN  CLOUDY    75  70  84 CALM      29.90R
GLASGOW        NOT AVBL
$$

KYZ024-025-028>034-038-045-046-053-031700-
NORTH CENTRAL KENTUCKY

CITY           SKY/WX    TMP DP  RH WIND       PRES   REMARKS
LOUISVILLE/SDF CLOUDY    77  70  79 NE5       29.86S
LOUISVILLE/LOU CLOUDY    75  69  81 CALM      29.87S
FORT KNOX      PTSUNNY   75  70  83 VRB3      29.86S
$$

KYZ035>037-039>044-047>052-055>060-089>105-031700-
NORTHEAST KENTUCKY

CITY           SKY/WX    TMP DP  RH WIND       PRES   REMARKS
LEXINGTON      CLOUDY    72  69  90 S3        29.89S
COVINGTON      CLOUDY    73  65  75 NE7       29.90R
FRANKFORT      CLOUDY    72  67  84 NE5       29.88R
$$

KYZ054-064>069-076>088-106>120-031700-
SOUTHEAST KENTUCKY

CITY           SKY/WX    TMP DP  RH WIND       PRES   REMARKS
JACKSON        LGT RAIN  70  68  93 CALM      29.92R FOG
LONDON         LGT RAIN  69  65  86 S3        29.93R
SOMERSET       NOT AVBL
MIDDLESBORO    NOT AVBL
MONTICELLO     CLOUDY    73  71  93 W6        29.95R
$$



USA.gov is the U.S. government's official web portal to all federal, state and local government web resources and services.